[[{"header":{"parameterUnit":"m.s-1","parameterCategory":1,"la1":30.2992,"la2":30.254,"lo1":-89.0895,"lo2":-89.0443,"dy":0.0025,"dx":0.0025,"nx":19,"ny":19,"refTime":"2026-05-23T21:00:00:Z","depth":0,"parameterNumber":2,"parameterNumberName":"U-component_of_WINDS"},"data":[0,0,0,-0.6683,-0.6686,-0.6844,-0.6845,-0.7033,-0.7035,0,0,0,0,0,0,0,0,0,0,0,-0.6627,-0.6628,-0.6683,-0.6686,-0.6844,-0.6845,-0.7033,-0.7035,0,0,0,0,0,0,0,0,0,0,0,-0.6627,-0.6628,-0.6629,-0.6687,-0.6844,-0.6845,-0.7033,-0.6919,0,0,0,0,0,0,0,0,0,0,-0.6768,-0.6707,-0.6627,-0.6629,-0.6688,-0.6844,-0.6845,-0.6913,-0.6926,-0.6956,0,-0.6979,0,-0.701,-0.7047,-0.7047,0,0,0,-0.6693,-0.6696,-0.6747,-0.6629,-0.6689,-0.6843,-0.6775,-0.692,-0.6934,-0.6972,-0.6982,-0.699,-0.7013,-0.7048,-0.7049,-0.7198,-0.7199,0,0,-0.6685,-0.6651,-0.6737,-0.6756,-0.6729,-0.677,-0.678,-0.6929,-0.6938,-0.6983,-0.6994,-0.7016,-0.7049,-0.705,-0.7198,-0.7198,0,0,0,-0.6655,-0.6644,-0.6692,-0.6748,-0.6777,-0.6774,-0.6786,-0.6932,-0.695,-0.6997,-0.7019,-0.705,-0.7052,-0.7198,-0.7198,-0.7184,0,0,0,-0.665,-0.6627,-0.6688,-0.6668,-0.6774,-0.6856,-0.6784,-0.6939,-0.6957,-0.7018,-0.705,-0.7054,-0.7197,-0.7198,-0.7184,-0.7183,0,0,0,-0.662,-0.6624,-0.6643,-0.6666,-0.6733,-0.6854,-0.6882,-0.6944,-0.6971,-0.7047,-0.7054,-0.7197,-0.7198,-0.7183,-0.7183,-0.7214,0,0,0,-0.6578,-0.6628,-0.6642,-0.6707,-0.6731,-0.6844,-0.6881,-0.6967,-0.7031,-0.7051,-0.7197,-0.7198,-0.7183,-0.7183,-0.7213,-0.7234,-0.724,0,0,-0.6622,-0.6632,-0.6673,-0.669,-0.6792,-0.6823,-0.6923,-0.7014,-0.7052,-0.7148,-0.7152,-0.7184,-0.7183,-0.7214,-0.728,-0.7283,0,0,0,-0.6675,-0.6704,-0.6739,-0.6798,-0.6868,-0.693,-0.7009,-0.7043,-0.7126,-0.7094,-0.7204,-0.7204,-0.7224,-0.7236,-0.7239,-0.7259,-0.7202,-0.7202,-0.7202,-0.669,-0.6736,-0.6807,-0.6873,-0.693,-0.7012,-0.7063,-0.7123,-0.7153,-0.7178,-0.7207,-0.7241,-0.7254,-0.7257,-0.7276,-0.7221,-0.7221,-0.7221,-0.7221,-0.676,-0.6808,-0.6848,-0.693,-0.698,-0.705,-0.7131,-0.7151,-0.7224,-0.7223,-0.7243,-0.7238,-0.7259,-0.7279,-0.7221,-0.7221,-0.7221,-0.7221,-0.7221,-0.6775,-0.6807,-0.6847,-0.6938,-0.7004,-0.7069,-0.7138,-0.7181,-0.7221,-0.724,-0.7277,-0.7277,-0.7284,-0.7254,-0.7255,-0.7255,-0.7255,-0.7255,-0.7255,-0.6775,-0.6821,-0.6874,-0.6953,-0.6998,-0.7062,-0.7145,-0.719,-0.7252,-0.7277,-0.7278,-0.7306,-0.7252,-0.7238,-0.7257,-0.7257,-0.7256,-0.7256,-0.7256,-0.6831,-0.6825,-0.6906,-0.6951,-0.7049,-0.7112,-0.7165,-0.7254,-0.7298,-0.7331,-0.7355,-0.7308,-0.7321,-0.7319,-0.7308,-0.7344,-0.7344,-0.7344,-0.7344,-0.6844,-0.6855,-0.6949,-0.7017,-0.7089,-0.7146,-0.7238,-0.7304,-0.7371,-0.7401,-0.7402,-0.7391,-0.7386,-0.7403,-0.7398,-0.7389,-0.7445,-0.7445,-0.7445,-0.6882,-0.6901,-0.6971,-0.7036,-0.7116,-0.7184,-0.7273,-0.7351,-0.7426,-0.745,-0.7426,-0.7422,-0.7404,-0.7396,-0.7419,-0.7412,-0.7395,0,0]},{"header":{"parameterUnit":"m.s-1","parameterCategory":1,"la1":30.2992,"la2":30.254,"lo1":-89.0895,"lo2":-89.0443,"dy":0.0025,"dx":0.0025,"nx":19,"ny":19,"refTime":"2026-05-23T21:00:00:Z","depth":0,"parameterNumber":3,"parameterNumberName":"V-component_of_WINDS"},"data":[0,0,0,0.3944,0.3942,0.3843,0.3843,0.372,0.3719,0,0,0,0,0,0,0,0,0,0,0,0.398,0.398,0.3944,0.3942,0.3843,0.3843,0.3721,0.3719,0,0,0,0,0,0,0,0,0,0,0,0.398,0.398,0.3979,0.3941,0.3844,0.3843,0.3721,0.3793,0,0,0,0,0,0,0,0,0,0,0.3887,0.3929,0.398,0.3979,0.3941,0.3844,0.3843,0.3796,0.3788,0.3768,0,0.3757,0,0.3737,0.3712,0.3712,0,0,0,0.3935,0.3936,0.3903,0.3979,0.394,0.3844,0.3886,0.3791,0.3783,0.3758,0.3755,0.375,0.3735,0.3711,0.3711,0.3632,0.3632,0,0,0.394,0.3965,0.391,0.3898,0.3919,0.3889,0.3883,0.3786,0.3783,0.3755,0.3747,0.3733,0.371,0.371,0.3632,0.3632,0,0,0,0.3961,0.3969,0.3939,0.3903,0.3886,0.3886,0.3879,0.3787,0.3775,0.3746,0.3731,0.371,0.3708,0.3632,0.3632,0.3656,0,0,0,0.3964,0.3981,0.3942,0.3956,0.3888,0.3836,0.3883,0.3782,0.377,0.3732,0.371,0.3707,0.3632,0.3632,0.3656,0.3662,0,0,0,0.3984,0.3983,0.3972,0.3957,0.3917,0.3837,0.382,0.3779,0.3762,0.3711,0.3707,0.3632,0.3632,0.3655,0.3661,0.365,0,0,0,0.4011,0.3992,0.3973,0.3945,0.3918,0.3855,0.382,0.3771,0.3731,0.3709,0.3632,0.3632,0.3655,0.3661,0.3649,0.3644,0.3645,0,0,0.4,0.3992,0.3973,0.3953,0.3902,0.3868,0.3817,0.3754,0.3723,0.3662,0.366,0.3656,0.3661,0.365,0.3641,0.3642,0,0,0,0.3978,0.3965,0.3946,0.3912,0.3867,0.3828,0.3771,0.3747,0.3696,0.3699,0.3647,0.365,0.3642,0.3638,0.3639,0.363,0.3631,0.3631,0.3631,0.3996,0.3963,0.393,0.3886,0.3852,0.3796,0.3764,0.3722,0.3694,0.3682,0.3664,0.3664,0.366,0.3661,0.3652,0.3659,0.3659,0.3659,0.3659,0.3977,0.3953,0.3921,0.3879,0.3842,0.3803,0.3746,0.3728,0.3684,0.3674,0.3665,0.3657,0.3663,0.3653,0.3661,0.366,0.366,0.366,0.366,0.3985,0.3968,0.3944,0.3892,0.3854,0.3807,0.3769,0.3735,0.3702,0.3694,0.367,0.367,0.3664,0.3685,0.3685,0.3685,0.3685,0.3685,0.3685,0.4003,0.3975,0.3949,0.3901,0.3876,0.3837,0.378,0.3751,0.3711,0.3689,0.3688,0.3661,0.3671,0.3674,0.3685,0.3685,0.3685,0.3685,0.3685,0.3995,0.3992,0.3952,0.3927,0.3868,0.3833,0.3792,0.3738,0.3709,0.369,0.3665,0.3678,0.3665,0.3664,0.3666,0.3674,0.3674,0.3674,0.3674,0.4002,0.3994,0.3946,0.3907,0.3866,0.3825,0.3777,0.3731,0.3683,0.3662,0.3656,0.3656,0.3657,0.3643,0.3642,0.3644,0.3646,0.3646,0.3646,0.3995,0.3981,0.3949,0.3907,0.3859,0.3816,0.377,0.3723,0.3666,0.3644,0.3645,0.3646,0.3646,0.3648,0.3625,0.3625,0.3626,0,0]}]]